"Pseudo-MPEC" for C0VLV05

Created 2024 Dec 4 17:31:06 UT using Find_Orb

Click here for an explanation of pseudo-MPECs

 
 Astrometry: 
     C0VLV05* C2024 11 29.29877504 28 36.239+24 01 58.94   ~BT8H 21.90GVNEOCPV00
     C0VLV05  C2024 11 29.30536504 28 31.786+24 04 58.01   ~BT8H 20.90GVNEOCPV00
     C0VLV05  C2024 11 29.31097104 28 28.016+24 07 29.32   ~BT8H       VNEOCPV00
     C0VLV05  C2024 11 29.31659204 28 24.204+24 10 04.30   ~BT8H 21.01GVNEOCPV00
     C0VLV05 KC2024 11 29.36072304 27 54.000+24 30 10.30   ~BT9H 21.00GVNEOCPI52
     C0VLV05 KC2024 11 29.36362404 27 52.045+24 31 29.64   ~BT9H 20.14GVNEOCPI52
     C0VLV05 KC2024 11 29.36650904 27 50.062+24 32 48.30   ~BT9H 19.99GVNEOCPI52
     C0VLV05 KC2024 11 29.36941504 27 48.056+24 34 07.61   ~BT9H 20.53GVNEOCPI52

Station data:
(I52) Steward Observatory, Mt. Lemmon Station  (N32.442570 W110.788920)
   US/Arizona.  Observers T. A. Pruyne, B. M. Africano, E. J. Christensen, G.
   A. Farneth, D. C. Fuls, A. R. Gibbs, A. D. Grauer, H. Gröller, J. A.
   Johnson, R. A. Kowalski, S. M. Larson, G. J. Leonard, D. Rankin, R. L.
   Seaman, F. C. Shelly, K. W. Wierzchoś. 1.0-m prime focus + CCD.
(V00) Kitt Peak-Bok  (N31.963125 W111.600190)  US/Arizona.  Observers T. A.
   Pruyne, B. M. Africano, E. J. Christensen, G. A. Farneth, D. C. Fuls, A.
   R. Gibbs, A. D. Grauer, H. Gröller, J. A. Johnson, R. A. Kowalski, S. M.
   Larson, G. J. Leonard, D. Rankin, R. L. Seaman, F. C. Shelly, K. W.
   Wierzchoś. 2.25-m reflector + 4x4K mosaic CCD.

Orbital elements:  C0VLV05
   Perihelion 2025 Jan 25.85404 +/- 9.78 TT = 20:29:49 (JD 2460701.35404)
Epoch 2024 Nov 29.0 TT = JDT 2460643.5   Earth MOID: 0.0367      AutoNEOCP
M 323.93017917 +/- 14               (J2000 ecliptic)
n   0.62346243 +/- 0.149            Peri.   79.56817 +/- 14
a   1.35705002 +/- 0.217            Node    67.05095 +/- 0.043
e   0.4202000 +/- 0.109             Incl.   22.07805 +/- 7
P   1.581/577.410d         H 27.19  G  0.15   U 11.5  SR
q 0.78681757 +/- 0.0716    Q 1.92728247 +/- 0.487
From 8 observations 2024 Nov. 29 (1.7 hr); mean residual 0".46
Residuals in arcseconds: 
241129 V00  .07+  .36+    241129 V00  .04-  .55+    241129 I52  .10+  .20-    
241129 V00  .12-  .14+    241129 I52  .18-  .73+    241129 I52  .13-  .76-    
241129 V00  .09+  1.2-    241129 I52  .22+  .40+    

Ephemerides (geocentric):
Date (UTC) HH   RA             Dec           delta  r     elong  mag " sig PA
---- --------  ------------   ------------  ------ ------ -----  --- --------
2024 12 04 18  22 24 03.163   +74 23 54.90  .04074 1.0002 110.1 22.6 674'  90
2024 12 04 19  22 16 50.152   +74 19 24.69  .04091 1.0000 109.6 22.6 680'  92
2024 12 04 20  22 09 45.019   +74 14 04.65  .04107 0.9997 109.1 22.7 687'  93
2024 12 04 21  22 02 48.340   +74 07 56.92  .04124 0.9994 108.6 22.7 695'  94
2024 12 04 22  21 56 00.607   +74 01 03.72  .04142 0.9991 108.1 22.7 703'  96
2024 12 04 23  21 49 22.226   +73 53 27.31  .04159 0.9989 107.6 22.7 711'  97
2024 12 05 00  21 42 53.526   +73 45 09.97  .04177 0.9986 107.1 22.8 720'  98
2024 12 05 01  21 36 34.754   +73 36 13.98  .04195 0.9983 106.7 22.8 730'  99
2024 12 05 02  21 30 26.086   +73 26 41.61  .04214 0.9980 106.2 22.8 740' 100
2024 12 05 03  21 24 27.633   +73 16 35.10  .04232 0.9978 105.7 22.8 750' 101
2024 12 05 04  21 18 39.441   +73 05 56.65  .04251 0.9975 105.3 22.9 761' 102
2024 12 05 05  21 13 01.502   +72 54 48.41  .04271 0.9972 104.8 22.9 772' 103
2024 12 05 06  21 07 33.761   +72 43 12.48  .04290 0.9970 104.3 22.9 783' 104
2024 12 05 07  21 02 16.117   +72 31 10.86  .04310 0.9967 103.9 22.9 794' 105
2024 12 05 08  20 57 08.434   +72 18 45.51  .04330 0.9964 103.5 23.0 806' 105
2024 12 05 09  20 52 10.544   +72 05 58.31  .04350 0.9961 103.0 23.0 817' 106
2024 12 05 10  20 47 22.252   +71 52 51.03  .04371 0.9959 102.6 23.0 829' 107
2024 12 05 11  20 42 43.343   +71 39 25.40  .04391 0.9956 102.1 23.0 841' 108
2024 12 05 12  20 38 13.583   +71 25 43.04  .04412 0.9953 101.7 23.0 852' 108
2024 12 05 13  20 33 52.728   +71 11 45.49  .04434 0.9950 101.3 23.1 864' 109
2024 12 05 14  20 29 40.521   +70 57 34.23  .04455 0.9948 100.9 23.1 876' 109
2024 12 05 15  20 25 36.700   +70 43 10.63  .04477 0.9945 100.5 23.1 888' 110
2024 12 05 16  20 21 41.000   +70 28 36.01  .04499 0.9942 100.0 23.1 899' 110
2024 12 05 17  20 17 53.151   +70 13 51.60  .04521 0.9940  99.6 23.2 911' 111
2024 12 05 18  20 14 12.888   +69 58 58.56  .04543 0.9937  99.2 23.2 922' 111
2024 12 05 19  20 10 39.944   +69 43 57.98  .04566 0.9934  98.8 23.2 933' 112
2024 12 05 20  20 07 14.057   +69 28 50.88  .04588 0.9931  98.4 23.2 944' 112
2024 12 05 21  20 03 54.969   +69 13 38.23  .04611 0.9929  98.0 23.3 955' 113
2024 12 05 22  20 00 42.429   +68 58 20.92  .04635 0.9926  97.7 23.3 966' 113
2024 12 05 23  19 57 36.189   +68 42 59.80  .04658 0.9923  97.3 23.3 977' 114
2024 12 06 00  19 54 36.010   +68 27 35.65  .04682 0.9921  96.9 23.3 987' 114
2024 12 06 01  19 51 41.660   +68 12 09.21  .04705 0.9918  96.5 23.4 997' 114
2024 12 06 02  19 48 52.912   +67 56 41.16  .04729 0.9915  96.1 23.4  17d 115
2024 12 06 03  19 46 09.550   +67 41 12.15  .04753 0.9912  95.8 23.4  17d 115
2024 12 06 04  19 43 31.363   +67 25 42.76  .04778 0.9910  95.4 23.4  17d 115
2024 12 06 05  19 40 58.148   +67 10 13.56  .04802 0.9907  95.0 23.4  17d 116
2024 12 06 06  19 38 29.711   +66 54 45.05  .04827 0.9904  94.7 23.5  17d 116
2024 12 06 07  19 36 05.864   +66 39 17.72  .04852 0.9901  94.3 23.5  18d 116
2024 12 06 08  19 33 46.428   +66 23 52.01  .04877 .98988  94.0 23.5  18d 117
2024 12 06 09  19 31 31.228   +66 08 28.34  .04902 .98961  93.6 23.5  18d 117
2024 12 06 10  19 29 20.101   +65 53 07.09  .04928 .98934  93.3 23.6  18d 117
2024 12 06 11  19 27 12.886   +65 37 48.60  .04953 .98907  92.9 23.6  18d 117
2024 12 06 12  19 25 09.432   +65 22 33.21  .04979 .98879  92.6 23.6  18d 118
2024 12 06 13  19 23 09.593   +65 07 21.23  .05005 .98852  92.3 23.6  18d 118
2024 12 06 14  19 21 13.231   +64 52 12.92  .05031 .98825  91.9 23.7  19d 118
2024 12 06 15  19 19 20.210   +64 37 08.55  .05057 .98798  91.6 23.7  19d 118
2024 12 06 16  19 17 30.404   +64 22 08.35  .05084 .98771  91.3 23.7  19d 119
2024 12 06 17  19 15 43.691   +64 07 12.54  .05110 .98744  91.0 23.7  19d 119